Вернуться в каталог

STARLINK-36708

АктивенСвязьSSO
NORAD 67713·PAYLOAD·🇺🇸 United States

Запущен Feb 7, 2026 с Vandenberg Space Force Base

Loading…

Ближайшие Пролёты (ближайшие 24 часа)

TLE

СвежийSource: CelesTrak SupGP

Эпоха: Sep 14, 2026, 14:54 UTC

1 67713C 26025W   26257.62131944  .00073923  00000+0  22961-2 0  2573
2 67713  97.2855   6.7725 0001047  97.6581 137.9246 15.33383529    12

Отслеживайте STARLINK-36708 в реальном времени с AllMySat

Download on the App Store